Regional Weather Roundup
Issued by NWS

Home | Current Version | Previous Version | Text Only | Print | Product List | Glossary On
Versions: 1 2 3 4 5 6 7 8 9 10 11 12 13 14 15 16 17 18 19 20 21 22 23 24 25 26 27 28 29 30 31 32 33 34 35 36 37 38 39 40 41 42 43 44 45 46 47 48 49 50
000
ASUS43 KMKX 260500
RWRWI

WISCONSIN REGIONAL WEATHER ROUNDUP
NATIONAL WEATHER SERVICE MILWAUKEE/SULLIVAN WI
1200 AM CDT THU MAY 26 2016

NOTE: "FAIR" INDICATES FEW OR NO CLOUDS BELOW 12,000 FEET WITH NO
SIGNIFICANT WEATHER AND/OR OBSTRUCTIONS TO VISIBILITY.

WIZ001-002-006>008-014>016-023>028-260600-
NORTHWEST WISCONSIN

CITY           SKY/WX    TMP DP  RH WIND       PRES   REMARKS
SUPERIOR ARPT  CLOUDY    44  43  97 NE8       29.89S
ASHLAND        CLOUDY    47  47 100 N7        29.87F
HAYWARD        CLOUDY    52  51  97 CALM      29.86S FOG
SIREN          CLOUDY    58  57  97 SE5       29.86R FOG
CUMBERLAND     FOG       55  55 100 CALM      29.85F VSB 1/2
RICE LAKE      FOG       58  56  94 CALM      29.87S VSB<1/4
CHETEK         FOG       56  56 100 CALM      29.86S VSB 1/4
LADYSMITH      MOCLDY    59  58  97 CALM      29.87S
EAU CLAIRE     NOT AVBL
MENOMONIE      FOG       61  61 100 E3        29.87R VSB 3/4
NEW RICHMOND   CLOUDY    63  63  99 SE5       29.86S FOG
OSCEOLA        CLOUDY    64  64 100 SE8       29.87S
$$

WIZ003>005-009-010-017-018-260600-
NORTH CENTRAL WISCONSIN

CITY           SKY/WX    TMP DP  RH WIND       PRES   REMARKS
MANITOWISH WTR NOT AVBL
ARBOR VITAE    HVY RAIN  60  58  94 E3        29.85F
WOODRUFF       HVY RAIN  60  58  94 E3        29.85F
RHINELANDER    CLOUDY    60  58  92 S7        29.86F
EAGLE RIVER    DRIZZLE   58  58  98 SE5       29.85F
LAND O LAKES   RAIN      59  58  97 E6        29.87F
PHILLIPS       CLOUDY    61  61 100 CALM      29.84S
TOMAHAWK       CLOUDY    61  59  94 CALM      29.86S FOG
MEDFORD        CLOUDY    62  62 100 SW6       29.87S
MERRILL        CLOUDY    63  63 100 SW3       29.87S
$$

WIZ029-030-035-036-043>047-260600-
CENTRAL WISCONSIN

CITY           SKY/WX    TMP DP  RH WIND       PRES   REMARKS
WAUSAU         CLOUDY    64  32  30 S9        29.86F HAZE
MOSINEE        MOCLDY    61  61 100 SE6       29.88F FOG
MARSHFIELD     CLOUDY    64  61  90 S6        29.87S FOG
STEVENS POINT  MOCLDY    59  59  99 CALM      29.88S FOG
WAUPACA        CLOUDY    63  62  97 CALM      29.88F FOG
WAUTOMA        CLEAR     61  59  94 CALM      29.88F FOG
WISC RAPIDS    CLEAR     62  59  90 S3        29.89R FOG
CAMP DOUGLAS   CLOUDY    63  63 100 S1        29.87S
$$

WIZ011>013-019>022-031-037>040-048>050-260600-
NORTHEAST WISCONSIN

CITY           SKY/WX    TMP DP  RH WIND       PRES   REMARKS
ANTIGO         CLOUDY    59  59 100 S10       29.88S FOG
SHAWANO        CLOUDY    61  60  94 SE3       29.89S FOG
OCONTO         CLOUDY   N/A N/A N/A SE3       29.88F
STURGEON BAY   NOT AVBL
GREEN BAY      PTCLDY    60  59  96 CALM      29.87F FOG
MANITOWOC      NOT AVBL
APPLETON       PTCLDY    59  59 100 SE6       29.87F FOG
CLINTONVILLE   CLOUDY    59  59 100 S6        29.88F FOG
OSHKOSH        CLEAR     59  57  93 S5        29.88F FOG
$$

WIZ032>034-041-042-053>061-260600-
SOUTHWEST WISCONSIN

CITY           SKY/WX    TMP DP  RH WIND       PRES   REMARKS
LA CROSSE      CLEAR     66  64  93 SE5       29.85R
SPARTA         CLEAR     60  60 100 CALM      29.87S
VIROQUA        MOCLDY    67  62  82 S6        29.89S
BOSCOBEL       FOG       63  62  97 CALM      29.88R VSB 1/2
PRAIRIE DU CHI PTCLDY    66  60  79 CALM      29.87R
PLATTEVILLE    CLEAR     70  58  67 SW5       29.88F
$$

WIZ056-057-062-063-064-067-068-260600-
SOUTH CENTRAL WISCONSIN

CITY           SKY/WX    TMP DP  RH WIND       PRES   REMARKS
REEDSBURG      MOCLDY    65  65 100 CALM      29.88S
BARABOO/DELLS  PTCLDY    64  62  94 CALM      29.88F FOG
LONE ROCK      NOT AVBL
MINERAL POINT  PTCLDY    72  57  60 S5        29.90S
MADISON        PTCLDY    69  63  81 S8        29.88F
MIDDLETON      CLEAR     70  63  78 SW8       29.89F
WATERTOWN      CLEAR     64  64 100 S5        29.89F
MONROE         CLEAR     64  63  94 S5        29.90F
JANESVILLE     CLEAR     68  64  88 S7        29.90S
$$

WIZ051-052-058>065-066-070>072-260600-
SOUTHEAST WISCONSIN

CITY           SKY/WX    TMP DP  RH WIND       PRES   REMARKS
MILWAUKEE      MOCLDY    60  58  92 SE5       29.91F
WAUKESHA       PTCLDY    59  59 100 E3        29.93S FOG
MILWAUKEE/TIMM PTCLDY    57  54  88 CALM      29.92F FOG
RACINE         CLOUDY    63  60  90 S10       29.93F
BURLINGTON     CLEAR     63  63  99 CALM      29.92S
KENOSHA        CLOUDY    65  62  90 S7        29.92F
FOND DU LAC    LGT RAIN  63  61  93 S7        29.89S
SHEBOYGAN      CLOUDY    56  54  93 CALM      29.91F FOG
WEST BEND      CLOUDY    57  55  94 S6        29.91S FOG
JUNEAU         CLEAR     61  60  97 SE5       29.91S FOG
$$

LSZ147-162-260600-
LAKE SUPERIOR

STATION/POSITION TIME  TEMP    WIND        PRES    WAVE
                       AIR SEA DIR/SP/G            HT/PER
                 (UTC) (F)     (DEG/KT/KT) (MB)    (FT/S)
W MID LAKE BUOY  0350   40 38   80/ 14/ 16 1013.8F   3/ 5
DEVILS ISLAND    0400   42      80/ 13/ 16 1012.7F
PORT WING        0240   43      70/  4/ 16 1011.9
SAXON HARBOR     0400   49     280/  2/  7 1010.2F
$$

LMZ867-665-643>646-260600-
LAKE MICHIGAN

STATION/POSITION TIME  TEMP    WIND        PRES    WAVE
                       AIR SEA DIR/SP/G            HT/PER
                 (UTC) (F)     (DEG/KT/KT) (MB)    (FT/S)
CHAMBERS ISLAND  0400   58     170/  2/  6 1012.9F
N MID LAKE BUOY  0350   50 45  120/ 10/ 10 1012.5F   1/ 3
NORTHPORT PIER   0400   55     170/  4/  5 1012.9F
SISTER BAY       0404   56     170/  9/ 11   N/A
ALGOMA LAKESHORE 0417           90/  7/  7   N/A
KEWAUNEE LAKESHO 0400   54      90/  5/  6 1012.3
SHEBOYGAN LAKESH 0400   51     350/  4/  6 1013.9F
PORT WASHINGTON  0400   55     120/  4/  5 1014.2S
S MID LAKE BUOY  0350   57 49  130/ 16/ 16 1013.4F   1/ 3
KENOSHA   LAKESH 0400   59     180/ 10/ 14 1013.2F
$$

TC  - TEMPERATURE IN CELSIUS
VSB - VISIBILITY IN STATUTE MILES
WCI - WIND CHILL INDEX
HX  - HEAT INDEX





USA.gov is the U.S. government's official web portal to all federal, state and local government web resources and services.